| time (UTC) | temp F | wind direction | speed knots | gust knots | rain 1hr in | rain 24hr in | rain mn in | humidity % | barometer mb |
| 20260506233003 | 52 | 295 | 11.3 | 13.9 | 0.00 | 0.00 | 0.00 | 90 | |
| 20260506232003 | 51 | 295 | 10.4 | 12.2 | 0.00 | 0.00 | 0.00 | 95 | |
| 20260506231003 | 51 | 300 | 9.6 | 11.3 | 0.00 | 0.00 | 0.00 | 98 | |
| 20260506230009 | 51 | 300 | 8.7 | 11.3 | 0.00 | 0.00 | 0.00 | 97 | |
| 20260506225003 | 51 | 295 | 9.6 | 12.2 | 0.00 | 0.00 | 0.00 | 97 | |
| 20260506224003 | 51 | 300 | 10.4 | 13.9 | 0.00 | 0.00 | 0.00 | 98 | |
| 20260506223003 | 51 | 300 | 10.4 | 13.0 | 0.00 | 0.00 | 0.00 | 96 | |
| 20260506222003 | 52 | 295 | 9.6 | 13.0 | 0.00 | 0.00 | 0.00 | 95 | |
| 20260506221003 | 52 | 295 | 10.4 | 13.0 | 0.00 | 0.00 | 0.00 | 94 | |
| 20260506220003 | 52 | 300 | 8.7 | 12.2 | 0.00 | 0.00 | 0.00 | 93 | |
| 20260506215003 | 52 | 285 | 9.6 | 11.3 | 0.00 | 0.00 | 0.00 | 89 | |
| 20260506214007 | 52 | 280 | 8.7 | 12.2 | 0.00 | 0.00 | 0.00 | 89 | |
| 20260506213003 | 52 | 285 | 8.7 | 11.3 | 0.00 | 0.00 | 0.00 | 89 | |
| 20260506212003 | 52 | 275 | 8.7 | 11.3 | 0.00 | 0.00 | 0.00 | 90 | |
| 20260506211003 | 52 | 270 | 7.8 | 10.4 | 0.00 | 0.00 | 0.00 | 91 | |
| 20260506210004 | 52 | 275 | 8.7 | 10.4 | 0.00 | 0.00 | 0.00 | 92 | |
| 20260506205003 | 52 | 265 | 6.1 | 11.3 | 0.00 | 0.00 | 0.00 | 92 | |
| 20260506204004 | 52 | 270 | 6.1 | 10.4 | 0.00 | 0.00 | 0.00 | 91 | |
| 20260506203003 | 52 | 255 | 7.8 | 10.4 | 0.00 | 0.00 | 0.00 | 90 | |
| 20260506202003 | 52 | 270 | 7.0 | 9.6 | 0.00 | 0.00 | 0.00 | 90 | |
| 20260506201003 | 51 | 275 | 6.1 | 9.6 | 0.00 | 0.00 | 0.00 | 93 | |
| 20260506200003 | 51 | 255 | 4.3 | 7.8 | 0.00 | 0.00 | 0.00 | 94 | |
| 20260506195003 | 51 | 270 | 5.2 | 7.8 | 0.00 | 0.00 | 0.00 | 96 | |
| 20260506194003 | 51 | 245 | 5.2 | 9.6 | 0.00 | 0.00 | 0.00 | 95 | |
| 20260506193003 | 51 | 260 | 6.1 | 8.7 | 0.00 | 0.00 | 0.00 | 95 | |
| 20260506192002 | 51 | 275 | 4.3 | 9.6 | 0.00 | 0.00 | 0.00 | 94 | |
| 20260506191003 | 51 | 275 | 8.7 | 9.6 | 0.00 | 0.00 | 0.00 | 95 | |
| 20260506190003 | 51 | 280 | 7.8 | 9.6 | 0.00 | 0.00 | 0.00 | 96 | |
| 20260506185003 | 51 | 275 | 7.0 | 9.6 | 0.00 | 0.00 | 0.00 | 94 | |
| 20260506184003 | 51 | 275 | 7.0 | 9.6 | 0.00 | 0.00 | 0.00 | 94 | |
| 20260506183004 | 52 | 285 | 4.3 | 8.7 | 0.00 | 0.00 | 0.00 | 92 | |
| 20260506182002 | 52 | 245 | 5.2 | 9.6 | 0.00 | 0.00 | 0.00 | 92 | |
| 20260506181002 | 52 | 260 | 5.2 | 8.7 | 0.00 | 0.00 | 0.00 | 92 | |
| 20260506180003 | 51 | 275 | 7.8 | 9.6 | 0.00 | 0.00 | 0.00 | 92 | |
| 20260506175003 | 52 | 280 | 7.8 | 9.6 | 0.00 | 0.00 | 0.00 | 91 | |
| 20260506174003 | 52 | 285 | 6.1 | 10.4 | 0.00 | 0.00 | 0.00 | 89 | |
| 20260506173003 | 52 | 280 | 7.0 | 8.7 | 0.00 | 0.00 | 0.00 | 89 | |
| 20260506172003 | 52 | 285 | 5.2 | 8.7 | 0.00 | 0.00 | 0.00 | 88 | |
| 20260506171002 | 52 | 280 | 7.0 | 8.7 | 0.00 | 0.00 | 0.00 | 87 | |
| 20260506170003 | 52 | 275 | 7.0 | 8.7 | 0.00 | 0.00 | 0.00 | 86 | |
| 20260506165003 | 52 | 280 | 5.2 | 10.4 | 0.00 | 0.00 | 0.00 | 87 | |
| 20260506164003 | 52 | 285 | 5.2 | 9.6 | 0.00 | 0.00 | 0.00 | 86 | |
| 20260506163003 | 52 | 280 | 7.0 | 10.4 | 0.00 | 0.00 | 0.00 | 87 | |
| 20260506162003 | 52 | 255 | 7.0 | 10.4 | 0.00 | 0.00 | 0.00 | 86 | |
| 20260506161002 | 52 | 255 | 6.1 | 8.7 | 0.00 | 0.00 | 0.00 | 88 | |
| 20260506160003 | 52 | 255 | 3.5 | 7.8 | 0.00 | 0.00 | 0.00 | 89 | |
| 20260506155003 | 52 | 245 | 4.3 | 7.0 | 0.00 | 0.00 | 0.00 | 90 | |
| 20260506154003 | 52 | 240 | 3.5 | 6.1 | 0.00 | 0.00 | 0.00 | 90 | |
| 20260506153003 | 52 | 260 | 3.5 | 7.8 | 0.00 | 0.00 | 0.00 | 91 | |
| 20260506152003 | 52 | 245 | 4.3 | 7.0 | 0.00 | 0.00 | 0.00 | 91 | |
| 20260506151003 | 51 | 270 | 6.1 | 7.8 | 0.00 | 0.00 | 0.00 | 90 | |
| 20260506150003 | 52 | 265 | 5.2 | 7.0 | 0.00 | 0.00 | 0.00 | 91 | |
| 20260506145002 | 52 | 240 | 4.3 | 6.1 | 0.00 | 0.00 | 0.00 | 91 | |
| 20260506144003 | 51 | 210 | 3.5 | 5.2 | 0.00 | 0.00 | 0.00 | 91 | |
| 20260506143003 | 52 | 235 | 3.5 | 6.1 | 0.00 | 0.00 | 0.00 | 91 | |
| 20260506142003 | 52 | 250 | 2.6 | 6.1 | 0.00 | 0.00 | 0.00 | 91 | |
| 20260506141003 | 51 | 215 | 2.6 | 6.1 | 0.00 | 0.00 | 0.00 | 90 | |
| 20260506140003 | 51 | 245 | 4.3 | 5.2 | 0.00 | 0.00 | 0.00 | 90 | |
| 20260506135003 | 51 | 230 | 4.3 | 5.2 | 0.00 | 0.00 | 0.00 | 90 | |
| 20260506134003 | 51 | 240 | 2.6 | 5.2 | 0.00 | 0.00 | 0.00 | 89 | |
| 20260506133003 | 51 | 265 | 3.5 | 7.0 | 0.00 | 0.00 | 0.00 | 89 | |
| 20260506132003 | 52 | 265 | 3.5 | 6.1 | 0.00 | 0.00 | 0.00 | 88 | |
| 20260506131003 | 51 | 220 | 5.2 | 8.7 | 0.00 | 0.00 | 0.00 | 90 | |
| 20260506130003 | 51 | 280 | 7.8 | 9.6 | 0.00 | 0.00 | 0.00 | 90 | |
| 20260506125002 | 51 | 280 | 6.1 | 8.7 | 0.00 | 0.00 | 0.00 | 92 | |
| 20260506124003 | 51 | 275 | 6.1 | 8.7 | 0.00 | 0.00 | 0.00 | 92 | |
| 20260506123003 | 51 | 275 | 5.2 | 8.7 | 0.00 | 0.00 | 0.00 | 92 | |
| 20260506122003 | 51 | 270 | 5.2 | 8.7 | 0.00 | 0.00 | 0.00 | 91 | |
| 20260506121003 | 52 | 250 | 5.2 | 7.8 | 0.00 | 0.00 | 0.00 | 91 | |
| 20260506120004 | 52 | 245 | 5.2 | 7.0 | 0.00 | 0.00 | 0.00 | 90 | |
| 20260506115003 | 52 | 270 | 4.3 | 7.0 | 0.00 | 0.00 | 0.00 | 88 | |
| 20260506114003 | 52 | 265 | 4.3 | 7.8 | 0.00 | 0.00 | 0.00 | 88 | |
| 20260506113018 | 52 | 265 | 6.1 | 7.8 | 0.00 | 0.00 | 0.00 | 89 | |
| 20260506112002 | 52 | 270 | 4.3 | 7.0 | 0.00 | 0.00 | 0.00 | 89 | |
| 20260506111003 | 52 | 240 | 4.3 | 7.0 | 0.00 | 0.00 | 0.00 | 90 | |
| 20260506110008 | 52 | 240 | 4.3 | 6.1 | 0.00 | 0.00 | 0.00 | 91 | |
| 20260506105003 | 52 | 245 | 3.5 | 7.0 | 0.00 | 0.00 | 0.00 | 91 | |
| 20260506104003 | 52 | 250 | 5.2 | 7.0 | 0.00 | 0.00 | 0.00 | 91 | |
| 20260506103004 | 52 | 255 | 6.1 | 7.0 | 0.00 | 0.00 | 0.00 | 91 | |
| 20260506102002 | 52 | 270 | 5.2 | 7.0 | 0.00 | 0.00 | 0.00 | 90 | |
| 20260506101003 | 52 | 295 | 6.1 | 7.8 | 0.00 | 0.00 | 0.00 | 89 | |
| 20260506100009 | 52 | 280 | 5.2 | 8.7 | 0.00 | 0.00 | 0.00 | 89 | |
| 20260506095003 | 52 | 275 | 5.2 | 8.7 | 0.00 | 0.00 | 0.00 | 90 | |
| 20260506094003 | 52 | 255 | 6.1 | 7.8 | 0.00 | 0.00 | 0.00 | 90 | |
| 20260506093004 | 52 | 280 | 5.2 | 7.0 | 0.00 | 0.00 | 0.00 | 90 | |
| 20260506092002 | 52 | 255 | 2.6 | 7.8 | 0.00 | 0.00 | 0.00 | 90 | |
| 20260506091003 | 52 | 255 | 5.2 | 7.0 | 0.00 | 0.00 | 0.00 | 90 | |
| 20260506090003 | 52 | 245 | 4.3 | 8.7 | 0.00 | 0.00 | 0.00 | 90 | |
| 20260506085003 | 53 | 270 | 4.3 | 7.0 | 0.00 | 0.00 | 0.00 | 90 | |
| 20260506084003 | 53 | 270 | 3.5 | 6.1 | 0.00 | 0.00 | 0.00 | 90 | |
| 20260506083003 | 53 | 285 | 3.5 | 5.2 | 0.00 | 0.00 | 0.00 | 90 | |
| 20260506082002 | 53 | 235 | 4.3 | 6.1 | 0.00 | 0.00 | 0.00 | 89 | |
| 20260506081002 | 53 | 235 | 5.2 | 7.0 | 0.00 | 0.00 | 0.00 | 89 | |
| 20260506073008 | 53 | 280 | 6.1 | 7.0 | 0.00 | 0.00 | 0.00 | 91 | |
| 20260506072003 | 53 | 265 | 4.3 | 7.8 | 0.00 | 0.00 | 0.00 | 91 | |
| 20260506071003 | 53 | 260 | 4.3 | 7.0 | 0.00 | 0.00 | 0.00 | 91 | |
| 20260506062003 | 53 | 240 | 4.3 | 7.0 | 0.00 | 0.00 | 0.00 | 89 | |
| 20260506061003 | 53 | 240 | 4.3 | 5.2 | 0.00 | 0.00 | 0.00 | 89 | |
| 20260506051003 | 53 | 280 | 3.5 | 6.1 | 0.00 | 0.00 | 0.00 | 89 | |
| 20260506045003 | 53 | 265 | 2.6 | 7.0 | 0.00 | 0.00 | 0.00 | 91 | |
| 20260506044002 | 54 | 280 | 5.2 | 7.0 | 0.00 | 0.00 | 0.00 | 91 | |
| 20260506043003 | 53 | 280 | 4.3 | 7.8 | 0.00 | 0.00 | 0.00 | 91 | |
| 20260506042003 | 53 | 290 | 5.2 | 8.7 | 0.00 | 0.00 | 0.00 | 92 | |
| 20260506041003 | 53 | 295 | 5.2 | 7.8 | 0.00 | 0.00 | 0.00 | 94 | |
| 20260506040004 | 53 | 295 | 7.0 | 7.8 | 0.00 | 0.00 | 0.00 | 94 | |
| 20260506035003 | 53 | 290 | 6.1 | 7.8 | 0.00 | 0.00 | 0.00 | 94 | |
| 20260506034003 | 53 | 295 | 7.0 | 9.6 | 0.00 | 0.00 | 0.00 | 94 | |
| 20260506033002 | 53 | 295 | 7.0 | 8.7 | 0.00 | 0.00 | 0.00 | 93 | |
| 20260506032003 | 53 | 295 | 7.0 | 9.6 | 0.00 | 0.00 | 0.00 | 94 | |
| 20260506031003 | 53 | 295 | 7.8 | 8.7 | 0.00 | 0.00 | 0.00 | 95 | |
| 20260506030004 | 53 | 295 | 7.0 | 9.6 | 0.00 | 0.00 | 0.00 | 95 | |
| 20260506025003 | 53 | 300 | 7.8 | 8.7 | 0.00 | 0.00 | 0.00 | 95 | |
| 20260506024004 | 53 | 295 | 6.1 | 8.7 | 0.00 | 0.00 | 0.00 | 95 | |
| 20260506023004 | 53 | 295 | 7.0 | 7.8 | 0.00 | 0.00 | 0.00 | 94 | |
| 20260506022002 | 53 | 300 | 7.0 | 8.7 | 0.00 | 0.00 | 0.00 | 93 | |
| 20260506021002 | 54 | 305 | 6.1 | 7.0 | 0.00 | 0.00 | 0.00 | 92 | |
| 20260506020003 | 54 | 305 | 6.1 | 7.0 | 0.00 | 0.00 | 0.00 | 92 | |
| 20260506015003 | 54 | 305 | 5.2 | 7.0 | 0.00 | 0.00 | 0.00 | 92 | |
| 20260506014003 | 54 | 305 | 6.1 | 7.8 | 0.00 | 0.00 | 0.00 | 92 | |
| 20260506013003 | 54 | 305 | 6.1 | 7.0 | 0.00 | 0.00 | 0.00 | 91 | |
| 20260506012002 | 54 | 300 | 5.2 | 7.0 | 0.00 | 0.00 | 0.00 | 92 | |
| 20260506011002 | 54 | 290 | 3.5 | 4.3 | 0.00 | 0.00 | 0.00 | 90 | |
| 20260506010008 | 54 | 285 | 3.5 | 5.2 | 0.00 | 0.00 | 0.00 | 91 | |
| 20260506005003 | 54 | 285 | 3.5 | 5.2 | 0.00 | 0.00 | 0.00 | 91 | |
| 20260506004003 | 54 | 285 | 4.3 | 6.1 | 0.00 | 0.00 | 0.00 | 91 | |
| 20260506003003 | 54 | 290 | 4.3 | 7.0 | 0.00 | 0.00 | 0.00 | 91 | |
| 20260506002003 | 54 | 300 | 6.1 | 7.0 | 0.00 | 0.00 | 0.00 | 92 | |
| 20260506001002 | 54 | 295 | 6.1 | 7.8 | 0.00 | 0.00 | 0.00 | 92 | |
| 20260506000003 | 54 | 295 | 6.1 | 7.8 | 0.00 | 0.00 | 0.00 | 93 | |
| 20260505235003 | 54 | 295 | 7.0 | 8.7 | 0.00 | 0.00 | 0.00 | 93 | |
| 20260505234003 | 54 | 290 | 5.2 | 7.8 | 0.00 | 0.00 | 0.00 | 92 |